Time,TemperatureF,DewpointF,PressureIn,WindDirection,WindDirectionDegrees,WindSpeedMPH,WindSpeedGustMPH,Humidity,HourlyPrecipIn,Conditions,Clouds,dailyrainin,SoftwareType,DateUTC
2013-07-21 00:00:00,74.8,74.8,30.00,NE,40,0.0,0.0,100,0.00,,SKC,0.00,VWS V13.01,2013-07-21 05:00:00,
2013-07-21 00:10:00,74.8,74.8,30.00,NE,40,0.0,0.0,100,0.04,,SKC,0.04,VWS V13.01,2013-07-21 05:10:00,
2013-07-21 00:20:00,74.8,74.8,30.00,NE,40,0.0,0.0,100,0.04,,SKC,0.04,VWS V13.01,2013-07-21 05:20:00,
2013-07-21 00:30:00,74.8,74.8,30.00,NE,40,0.0,0.0,100,0.04,,SKC,0.04,VWS V13.01,2013-07-21 05:30:00,
2013-07-21 00:40:00,74.7,74.7,30.00,NE,40,0.0,0.0,100,0.04,,SKC,0.04,VWS V13.01,2013-07-21 05:40:00,
2013-07-21 00:50:00,74.7,74.7,30.00,NE,40,0.0,0.0,100,0.04,,SKC,0.04,VWS V13.01,2013-07-21 05:50:00,
2013-07-21 01:00:00,74.5,74.5,30.00,NE,40,0.0,0.0,100,0.04,,SKC,0.04,VWS V13.01,2013-07-21 06:00:00,
2013-07-21 01:10:00,74.1,74.1,30.00,NE,40,0.0,0.0,100,0.04,,SKC,0.04,VWS V13.01,2013-07-21 06:10:00,
2013-07-21 01:20:00,73.8,73.8,30.00,NE,40,0.0,0.0,100,0.00,,SKC,0.04,VWS V13.01,2013-07-21 06:20:00,
2013-07-21 01:30:00,73.6,73.6,30.00,NE,40,0.0,0.0,100,0.00,,SKC,0.04,VWS V13.01,2013-07-21 06:30:00,
2013-07-21 01:40:00,73.6,73.6,30.00,NE,40,0.0,0.0,100,0.00,,SKC,0.04,VWS V13.01,2013-07-21 06:40:00,
2013-07-21 01:50:00,73.4,73.4,30.00,NE,40,0.0,0.0,100,0.00,,SKC,0.04,VWS V13.01,2013-07-21 06:50:00,
2013-07-21 02:00:00,73.2,73.2,30.00,NE,40,0.0,0.0,100,0.00,,SKC,0.04,VWS V13.01,2013-07-21 07:00:00,
2013-07-21 02:10:00,73.0,73.1,30.00,NE,40,0.0,0.0,100,0.00,,SKC,0.04,VWS V13.01,2013-07-21 07:10:00,
2013-07-21 02:20:00,72.9,72.9,29.97,NE,40,0.0,0.0,100,0.00,,SKC,0.04,VWS V13.01,2013-07-21 07:20:00,
2013-07-21 02:30:00,72.7,72.7,29.97,NE,40,0.0,0.0,100,0.00,,SKC,0.04,VWS V13.01,2013-07-21 07:30:00,
2013-07-21 02:40:00,72.7,72.7,29.97,NE,40,0.0,0.0,100,0.00,,SKC,0.04,VWS V13.01,2013-07-21 07:40:00,
2013-07-21 02:50:00,72.5,72.5,29.97,NE,40,0.0,0.0,100,0.00,,SKC,0.04,VWS V13.01,2013-07-21 07:50:00,
2013-07-21 03:00:00,72.5,72.5,29.97,NE,40,0.0,0.0,100,0.00,,SKC,0.04,VWS V13.01,2013-07-21 08:00:00,
2013-07-21 03:10:00,72.3,72.3,29.97,NE,40,0.0,0.0,100,0.00,,SKC,0.04,VWS V13.01,2013-07-21 08:10:00,
2013-07-21 03:20:00,72.1,72.2,29.97,NE,40,0.0,0.0,100,0.00,,SKC,0.04,VWS V13.01,2013-07-21 08:20:00,
2013-07-21 03:30:00,72.1,72.2,29.97,NE,40,0.0,0.0,100,0.00,,SKC,0.04,VWS V13.01,2013-07-21 08:30:00,
2013-07-21 03:40:00,72.0,72.0,29.97,NE,40,0.0,0.0,100,0.00,,SKC,0.04,VWS V13.01,2013-07-21 08:40:00,
2013-07-21 03:50:00,72.3,72.3,29.97,NE,40,0.0,0.0,100,0.00,,SKC,0.04,VWS V13.01,2013-07-21 08:50:00,
2013-07-21 04:00:00,72.3,72.3,29.97,NE,40,0.0,0.0,100,0.00,,SKC,0.04,VWS V13.01,2013-07-21 09:00:00,
2013-07-21 04:10:00,72.3,72.3,29.97,NE,40,0.0,0.0,100,0.00,,SKC,0.04,VWS V13.01,2013-07-21 09:10:00,
2013-07-21 04:20:00,72.1,72.2,29.97,NE,40,0.0,0.0,100,0.00,,SKC,0.04,VWS V13.01,2013-07-21 09:20:00,
2013-07-21 04:30:00,72.1,72.2,29.94,NE,40,0.0,0.0,100,0.00,,SKC,0.04,VWS V13.01,2013-07-21 09:30:00,
2013-07-21 04:40:00,72.1,72.2,29.94,NE,40,0.0,0.0,100,0.00,,SKC,0.04,VWS V13.01,2013-07-21 09:40:00,
2013-07-21 04:50:00,72.1,72.2,29.94,NE,40,0.0,0.0,100,0.00,,SKC,0.04,VWS V13.01,2013-07-21 09:50:00,
2013-07-21 05:00:00,72.1,72.2,29.94,NE,40,0.0,0.0,100,0.00,,SKC,0.04,VWS V13.01,2013-07-21 10:00:00,
2013-07-21 05:10:00,72.0,72.0,29.94,NE,40,0.0,0.0,100,0.00,,SKC,0.04,VWS V13.01,2013-07-21 10:10:00,
2013-07-21 05:20:00,72.0,72.0,29.94,NE,40,0.0,0.0,100,0.00,,SKC,0.04,VWS V13.01,2013-07-21 10:20:00,
2013-07-21 05:30:00,72.0,72.0,29.94,NE,40,0.0,0.0,100,0.00,,SKC,0.04,VWS V13.01,2013-07-21 10:30:00,
2013-07-21 05:40:00,71.6,71.6,29.94,NE,40,0.0,0.0,100,0.00,,SKC,0.04,VWS V13.01,2013-07-21 10:40:00,
2013-07-21 05:50:00,71.4,71.4,29.97,NE,40,0.0,0.0,100,0.00,,SKC,0.04,VWS V13.01,2013-07-21 10:50:00,
2013-07-21 06:00:00,71.6,71.6,29.97,NE,40,0.0,0.0,100,0.00,,SKC,0.04,VWS V13.01,2013-07-21 11:00:00,
2013-07-21 06:10:00,72.0,72.0,29.97,NE,40,0.0,0.0,100,0.00,,SKC,0.04,VWS V13.01,2013-07-21 11:10:00,
2013-07-21 06:20:00,72.1,72.2,29.97,NE,40,0.0,0.0,100,0.00,,SKC,0.04,VWS V13.01,2013-07-21 11:20:00,
2013-07-21 06:30:00,72.3,72.3,29.97,NE,40,0.0,0.0,100,0.00,,SKC,0.04,VWS V13.01,2013-07-21 11:30:00,
2013-07-21 06:40:00,72.1,72.2,29.97,NE,40,0.0,0.0,100,0.00,,SKC,0.04,VWS V13.01,2013-07-21 11:40:00,
2013-07-21 06:50:00,72.0,72.0,29.97,NE,40,0.0,0.0,100,0.00,,SKC,0.04,VWS V13.01,2013-07-21 11:50:00,
2013-07-21 07:00:00,71.6,71.6,29.97,NE,40,0.0,0.0,100,0.00,,SKC,0.04,VWS V13.01,2013-07-21 12:00:00,
2013-07-21 07:10:00,71.6,71.6,29.97,NE,40,0.0,0.0,100,0.00,,SKC,0.04,VWS V13.01,2013-07-21 12:10:00,
2013-07-21 07:20:00,71.8,71.8,29.97,NE,40,0.0,0.0,100,0.00,,SKC,0.04,VWS V13.01,2013-07-21 12:20:00,
2013-07-21 07:30:00,72.0,72.0,29.97,NE,40,0.0,0.0,100,0.00,,SKC,0.04,VWS V13.01,2013-07-21 12:30:00,
2013-07-21 07:40:00,72.1,72.2,29.97,NE,40,0.0,0.0,100,0.00,,SKC,0.04,VWS V13.01,2013-07-21 12:40:00,
2013-07-21 07:50:00,72.3,72.3,29.97,NE,40,0.0,0.0,100,0.00,,SKC,0.04,VWS V13.01,2013-07-21 12:50:00,
2013-07-21 08:00:00,72.7,72.7,29.97,NE,40,0.0,0.0,100,0.00,,SKC,0.04,VWS V13.01,2013-07-21 13:00:00,
2013-07-21 08:10:00,72.9,72.9,29.97,NE,40,0.0,0.0,100,0.00,,SKC,0.04,VWS V13.01,2013-07-21 13:10:00,
2013-07-21 08:20:00,73.0,73.1,29.97,NE,40,0.0,0.0,100,0.00,,SKC,0.04,VWS V13.01,2013-07-21 13:20:00,
2013-07-21 08:30:00,73.2,73.2,29.97,NE,40,0.0,0.0,100,0.00,,SKC,0.04,VWS V13.01,2013-07-21 13:30:00,
2013-07-21 08:40:00,73.2,73.2,29.97,NE,40,0.0,0.0,100,0.00,,SKC,0.04,VWS V13.01,2013-07-21 13:40:00,
2013-07-21 08:50:00,73.4,73.4,29.97,NE,40,0.0,0.0,100,0.00,,SKC,0.04,VWS V13.01,2013-07-21 13:50:00,
2013-07-21 09:00:00,73.8,73.8,29.97,NE,40,0.0,0.0,100,0.00,,SKC,0.04,VWS V13.01,2013-07-21 14:00:00,
2013-07-21 09:10:00,74.3,74.3,29.97,NE,40,0.0,0.0,100,0.00,,SKC,0.04,VWS V13.01,2013-07-21 14:10:00,
2013-07-21 09:20:00,75.2,75.2,29.97,NNE,25,0.0,0.0,100,0.00,,SKC,0.04,VWS V13.01,2013-07-21 14:20:00,
2013-07-21 09:30:00,75.6,75.6,29.97,NNE,25,0.0,0.0,100,0.00,,SKC,0.04,VWS V13.01,2013-07-21 14:30:00,
2013-07-21 09:40:00,76.1,73.9,29.97,NNE,26,0.0,0.0,93,0.00,,SKC,0.04,VWS V13.01,2013-07-21 14:40:00,
2013-07-21 09:50:00,76.5,71.3,29.97,NNE,26,0.0,0.0,84,0.00,,SKC,0.04,VWS V13.01,2013-07-21 14:50:00,
2013-07-21 10:00:00,76.8,68.7,30.00,NNE,27,0.0,0.0,76,0.00,,SKC,0.04,VWS V13.01,2013-07-21 15:00:00,
2013-07-21 10:10:00,77.0,66.1,30.00,North,4,0.0,0.0,69,0.00,,SKC,0.04,VWS V13.01,2013-07-21 15:10:00,
2013-07-21 10:20:00,77.0,65.2,30.00,NE,49,0.0,0.0,67,0.00,,SKC,0.04,VWS V13.01,2013-07-21 15:20:00,
2013-07-21 10:30:00,77.0,64.8,30.00,NNE,15,0.0,0.0,66,0.00,,SKC,0.04,VWS V13.01,2013-07-21 15:30:00,
2013-07-21 10:40:00,77.4,65.6,30.00,NE,41,0.0,0.0,67,0.00,,SKC,0.04,VWS V13.01,2013-07-21 15:40:00,
2013-07-21 10:50:00,77.7,65.0,30.00,South,182,0.0,0.0,65,0.00,,SKC,0.04,VWS V13.01,2013-07-21 15:50:00,
2013-07-21 11:00:00,77.9,65.2,30.00,NE,34,0.0,0.0,65,0.00,,SKC,0.04,VWS V13.01,2013-07-21 16:00:00,
2013-07-21 11:10:00,78.1,65.4,30.00,NE,44,0.0,0.0,65,0.00,,SKC,0.04,VWS V13.01,2013-07-21 16:10:00,
2013-07-21 11:20:00,78.6,65.4,30.00,NE,42,0.0,0.0,64,0.00,,SKC,0.04,VWS V13.01,2013-07-21 16:20:00,
2013-07-21 11:30:00,78.6,64.5,30.00,NNE,18,0.0,0.0,62,0.00,,SKC,0.04,VWS V13.01,2013-07-21 16:30:00,
2013-07-21 11:40:00,78.4,63.9,30.00,NE,41,0.0,0.0,61,0.00,,SKC,0.04,VWS V13.01,2013-07-21 16:40:00,
2013-07-21 11:50:00,79.0,64.9,30.00,NE,43,0.0,0.0,62,0.00,,SKC,0.04,VWS V13.01,2013-07-21 16:50:00,
2013-07-21 12:00:00,79.3,64.3,29.97,NNE,32,0.0,0.0,60,0.00,,SKC,0.04,VWS V13.01,2013-07-21 17:00:00,
2013-07-21 12:10:00,80.1,64.0,29.97,NNE,32,0.0,0.0,58,0.00,,SKC,0.04,VWS V13.01,2013-07-21 17:10:00,
2013-07-21 12:20:00,80.6,64.0,29.97,NE,35,0.0,0.0,57,0.00,,SKC,0.04,VWS V13.01,2013-07-21 17:20:00,
2013-07-21 12:30:00,80.6,63.5,29.97,NNE,15,0.0,0.0,56,0.00,,SKC,0.04,VWS V13.01,2013-07-21 17:30:00,
2013-07-21 12:40:00,80.6,63.5,29.97,NNE,25,0.0,0.0,56,0.00,,SKC,0.04,VWS V13.01,2013-07-21 17:40:00,
2013-07-21 12:50:00,80.6,63.5,29.97,NNE,33,0.0,0.0,56,0.00,,SKC,0.04,VWS V13.01,2013-07-21 17:50:00,
2013-07-21 13:00:00,81.1,64.0,29.94,NNE,31,0.0,0.0,56,0.00,,SKC,0.04,VWS V13.01,2013-07-21 18:00:00,
2013-07-21 13:10:00,81.5,64.3,29.94,NE,38,0.0,0.0,56,0.00,,SKC,0.04,VWS V13.01,2013-07-21 18:10:00,
2013-07-21 13:20:00,82.6,64.3,29.94,NNE,17,0.0,0.0,54,0.00,,SKC,0.04,VWS V13.01,2013-07-21 18:20:00,
2013-07-21 13:30:00,83.1,64.2,29.94,ENE,58,0.0,0.0,53,0.00,,SKC,0.04,VWS V13.01,2013-07-21 18:30:00,
2013-07-21 13:40:00,83.3,63.3,29.94,NE,34,0.0,0.0,51,0.00,,SKC,0.04,VWS V13.01,2013-07-21 18:40:00,
2013-07-21 13:50:00,83.1,62.6,29.94,NNE,33,0.0,0.0,50,0.00,,SKC,0.04,VWS V13.01,2013-07-21 18:50:00,
2013-07-21 14:00:00,84.2,63.0,29.94,NE,36,0.0,0.0,49,0.00,,SKC,0.04,VWS V13.01,2013-07-21 19:00:00,
2013-07-21 14:10:00,85.6,63.1,29.94,ENE,57,0.0,0.0,47,0.00,,SKC,0.04,VWS V13.01,2013-07-21 19:10:00,
2013-07-21 14:20:00,86.7,62.9,29.94,NNE,20,0.0,0.0,45,0.00,,SKC,0.04,VWS V13.01,2013-07-21 19:20:00,
2013-07-21 14:30:00,86.0,62.2,29.94,NNE,25,0.0,0.0,45,0.00,,SKC,0.04,VWS V13.01,2013-07-21 19:30:00,
2013-07-21 14:40:00,85.3,62.2,29.94,NE,34,0.0,0.0,46,0.00,,SKC,0.04,VWS V13.01,2013-07-21 19:40:00,
2013-07-21 14:50:00,84.6,61.5,29.91,NNE,25,0.0,0.0,46,0.00,,SKC,0.04,VWS V13.01,2013-07-21 19:50:00,
2013-07-21 15:00:00,84.2,61.2,29.94,NE,41,0.0,0.0,46,0.00,,SKC,0.04,VWS V13.01,2013-07-21 20:00:00,
2013-07-21 15:10:00,84.0,61.6,29.94,NE,48,0.0,0.0,47,0.00,,SKC,0.04,VWS V13.01,2013-07-21 20:10:00,
2013-07-21 15:20:00,84.6,62.1,29.94,NE,48,0.0,0.0,47,0.00,,SKC,0.04,VWS V13.01,2013-07-21 20:20:00,
2013-07-21 15:30:00,85.1,62.0,29.94,NNE,30,0.0,0.0,46,0.00,,SKC,0.04,VWS V13.01,2013-07-21 20:30:00,
2013-07-21 15:40:00,85.5,62.3,29.94,NNE,25,0.0,0.0,46,0.00,,SKC,0.04,VWS V13.01,2013-07-21 20:40:00,
2013-07-21 15:50:00,86.2,62.4,29.91,NNE,25,0.0,0.0,45,0.00,,SKC,0.04,VWS V13.01,2013-07-21 20:50:00,
2013-07-21 16:00:00,86.2,62.4,29.91,NNE,25,0.0,0.0,45,0.00,,SKC,0.04,VWS V13.01,2013-07-21 21:00:00,
2013-07-21 16:10:00,85.5,61.7,29.91,ENE,62,0.0,0.0,45,0.00,,SKC,0.04,VWS V13.01,2013-07-21 21:10:00,
2013-07-21 16:20:00,86.2,62.4,29.91,ESE,114,0.0,0.0,45,0.00,,SKC,0.04,VWS V13.01,2013-07-21 21:20:00,
2013-07-21 16:30:00,86.4,61.9,29.91,NE,34,0.0,0.0,44,0.00,,SKC,0.04,VWS V13.01,2013-07-21 21:30:00,
2013-07-21 16:40:00,86.0,61.6,29.91,NE,51,0.0,0.0,44,0.00,,SKC,0.04,VWS V13.01,2013-07-21 21:40:00,
2013-07-21 16:50:00,86.4,61.9,29.91,NE,51,0.0,0.0,44,0.00,,SKC,0.04,VWS V13.01,2013-07-21 21:50:00,
2013-07-21 17:00:00,86.7,62.2,29.91,ENE,69,0.0,0.0,44,0.00,,SKC,0.04,VWS V13.01,2013-07-21 22:00:00,
2013-07-21 17:10:00,86.7,62.2,29.91,NE,45,0.0,0.0,44,0.00,,SKC,0.04,VWS V13.01,2013-07-21 22:10:00,
2013-07-21 17:20:00,86.4,60.6,29.91,NE,43,0.0,0.0,42,0.00,,SKC,0.04,VWS V13.01,2013-07-21 22:20:00,
2013-07-21 17:30:00,86.0,61.6,29.91,SE,134,0.0,0.0,44,0.00,,SKC,0.04,VWS V13.01,2013-07-21 22:30:00,
2013-07-21 17:40:00,86.4,61.9,29.91,NE,47,0.0,0.0,44,0.00,,SKC,0.04,VWS V13.01,2013-07-21 22:40:00,
2013-07-21 17:50:00,86.0,61.6,29.88,NE,47,0.0,0.0,44,0.00,,SKC,0.04,VWS V13.01,2013-07-21 22:50:00,
2013-07-21 18:00:00,85.3,61.6,29.91,NE,45,0.0,0.0,45,0.00,,SKC,0.04,VWS V13.01,2013-07-21 23:00:00,
2013-07-21 18:10:00,84.9,61.2,29.91,NE,45,0.0,0.0,45,0.00,,SKC,0.04,VWS V13.01,2013-07-21 23:10:00,
2013-07-21 18:20:00,84.9,61.2,29.91,NE,45,0.0,0.0,45,0.00,,SKC,0.04,VWS V13.01,2013-07-21 23:20:00,
2013-07-21 18:30:00,85.1,61.4,29.91,NE,45,0.0,0.0,45,0.00,,SKC,0.04,VWS V13.01,2013-07-21 23:30:00,
2013-07-21 18:40:00,85.3,61.6,29.91,NE,46,0.0,0.0,45,0.00,,SKC,0.04,VWS V13.01,2013-07-21 23:40:00,
2013-07-21 18:50:00,85.3,61.6,29.91,NE,56,0.0,0.0,45,0.00,,SKC,0.04,VWS V13.01,2013-07-21 23:50:00,
2013-07-21 19:00:00,85.1,61.4,29.91,NE,52,0.0,0.0,45,0.00,,SKC,0.04,VWS V13.01,2013-07-22 00:00:00,
2013-07-21 19:10:00,85.3,61.6,29.91,NE,43,0.0,0.0,45,0.00,,SKC,0.04,VWS V13.01,2013-07-22 00:10:00,
2013-07-21 19:20:00,85.3,61.6,29.91,NE,43,0.0,0.0,45,0.00,,SKC,0.04,VWS V13.01,2013-07-22 00:20:00,
2013-07-21 19:30:00,85.1,61.4,29.91,NE,43,0.0,0.0,45,0.00,,SKC,0.04,VWS V13.01,2013-07-22 00:30:00,
2013-07-21 19:40:00,84.7,61.1,29.91,NE,43,0.0,0.0,45,0.00,,SKC,0.04,VWS V13.01,2013-07-22 00:40:00,
2013-07-21 19:50:00,84.4,60.7,29.91,NE,43,0.0,0.0,45,0.00,,SKC,0.04,VWS V13.01,2013-07-22 00:50:00,
2013-07-21 20:00:00,84.2,60.6,29.91,NE,43,0.0,0.0,45,0.00,,SKC,0.04,VWS V13.01,2013-07-22 01:00:00,
2013-07-21 20:10:00,83.8,60.9,29.91,East,84,0.0,0.0,46,0.00,,SKC,0.04,VWS V13.01,2013-07-22 01:10:00,
2013-07-21 20:20:00,83.7,60.7,29.91,East,84,0.0,0.0,46,0.00,,SKC,0.04,VWS V13.01,2013-07-22 01:20:00,
2013-07-21 20:30:00,83.1,60.2,29.91,East,84,0.0,0.0,46,0.00,,SKC,0.04,VWS V13.01,2013-07-22 01:30:00,
2013-07-21 20:40:00,82.8,60.5,29.91,South,175,0.0,0.0,47,0.00,,SKC,0.04,VWS V13.01,2013-07-22 01:40:00,
2013-07-21 20:50:00,81.5,60.5,29.91,SSW,203,0.0,0.0,49,0.00,,SKC,0.04,VWS V13.01,2013-07-22 01:50:00,
2013-07-21 21:00:00,80.2,61.6,29.91,SSW,195,0.0,0.0,53,0.00,,SKC,0.04,VWS V13.01,2013-07-22 02:00:00,
2013-07-21 21:10:00,79.3,62.3,29.91,SSW,192,0.0,0.0,56,0.00,,SKC,0.04,VWS V13.01,2013-07-22 02:10:00,
2013-07-21 21:20:00,78.6,62.1,29.91,South,189,0.0,0.0,57,0.00,,SKC,0.04,VWS V13.01,2013-07-22 02:20:00,
2013-07-21 21:30:00,78.3,62.3,29.91,SSW,193,0.0,0.0,58,0.00,,SKC,0.04,VWS V13.01,2013-07-22 02:30:00,
2013-07-21 21:40:00,77.9,62.4,29.91,SSW,193,0.0,0.0,59,0.00,,SKC,0.04,VWS V13.01,2013-07-22 02:40:00,
2013-07-21 21:50:00,77.5,62.6,29.94,South,190,0.0,0.0,60,0.00,,SKC,0.04,VWS V13.01,2013-07-22 02:50:00,
2013-07-21 22:00:00,77.2,62.2,29.94,South,190,0.0,0.0,60,0.00,,SKC,0.04,VWS V13.01,2013-07-22 03:00:00,
2013-07-21 22:10:00,76.8,62.4,29.94,South,190,0.0,0.0,61,0.00,,SKC,0.04,VWS V13.01,2013-07-22 03:10:00,
2013-07-21 22:20:00,76.6,62.7,29.94,South,190,0.0,0.0,62,0.00,,SKC,0.04,VWS V13.01,2013-07-22 03:20:00,
2013-07-21 22:30:00,76.3,62.8,29.94,South,190,0.0,0.0,63,0.00,,SKC,0.04,VWS V13.01,2013-07-22 03:30:00,
2013-07-21 22:40:00,76.1,63.0,29.94,SSW,192,0.0,0.0,64,0.00,,SKC,0.04,VWS V13.01,2013-07-22 03:40:00,
2013-07-21 22:50:00,76.1,63.9,29.94,South,190,0.0,0.0,66,0.00,,SKC,0.04,VWS V13.01,2013-07-22 03:50:00,
2013-07-21 23:00:00,75.9,64.2,29.94,South,177,0.0,0.0,67,0.00,,SKC,0.04,VWS V13.01,2013-07-22 04:00:00,
2013-07-21 23:10:00,75.7,64.4,29.94,South,177,0.0,0.0,68,0.00,,SKC,0.04,VWS V13.01,2013-07-22 04:10:00,
2013-07-21 23:20:00,75.6,64.3,29.94,South,177,0.0,0.0,68,0.00,,SKC,0.04,VWS V13.01,2013-07-22 04:20:00,
2013-07-21 23:30:00,75.2,64.3,29.94,South,177,0.0,0.0,69,0.00,,SKC,0.04,VWS V13.01,2013-07-22 04:30:00,
2013-07-21 23:40:00,75.0,65.0,29.94,South,177,0.0,0.0,71,0.00,,SKC,0.04,VWS V13.01,2013-07-22 04:40:00,
2013-07-21 23:50:00,75.0,65.4,29.94,South,177,0.0,0.0,72,0.00,,SKC,0.04,VWS V13.01,2013-07-22 04:50:00,